CZ-2D DEB, 31409

Orbit data source: Space-Track

CZ-2D DEB, 31409 is space debris in SSO originally from a launch on Tue, 05 Jul 2005 UTC launched from the Jiuquan Satellite Launch Center, China (JSC). Debris objects in space refer to the collection of defunct objects orbiting the Earth. Examples of debris include non-operational satellites, rocket bodies, and fragments generated from explosions, collisions, or faulty payload assembly.

Loading next visibility...
Identifier
31409, 2005-024J
Orbit
SSO
Country
Flag of CNCN / PRC
Related business
Manufacturer
Unknown
Mission
Spacecraft
Bus & Motor
Unknown
Mass
Unknown
Launch date (UTC)
2005-07-05 (20 years ago)
Launch vehicle
Unknown
Launch site
Jiuquan Satellite Launch Center, China (JSC)
Object type
Payload
Rocket body
Debris
Shape & HBR
Unknown
Radar Cross Section
Small (<0.1 m²)

Expand to show TLE details & history
Last TLE update: 2 days ago

TLE from 2 days ago
0 CZ-2D DEB
1 31409U 05024J   25241.83507889  .00042970  00000-0  56381-3 0  9998
2 31409  97.1861 274.1487 0007156 122.6878 237.5069 15.58399772 88281
Epoch: 2025-08-29T20:02Z
TLE epoch observation values (Epoch: 2025-08-29T20:02:30.816Z)
Latitude
-0.00005°
Longitude
-4.75772°
Altitude
398.042 km
Speed
7.67 km/s
True Right ascension
18h 16m 35s
True Declination
0° 00' 00"
Sunlit
Object was in full shadow at epoch
Visualization orbit readout
Latitude
Unknown
Longitude
Unknown
Altitude
Unknown
Speed
Unknown
Apparent Right ascension
Unknown
Apparent Declination
Unknown
Sunlit
N/A
Visualization observer readout
Local Sidereal Time
12:48:50
Azimuth
Unknown
Elevation
Unknown
Doppler factor
Unknown
Orbital elements
Apogee altitude
394.036 km
Perigee altitude
384.351 km
Semi-major axis
6,767.33 km
Eccentricity
0.00072
Inclination
97.1861°
RAAN
274.1487°
Arg. of periapsis
122.6878°
True anomaly
237.43777°
Mean anomaly
237.5069°
Eccentric anomaly
237.47233°
Mean motion
3.89868 °/min
Orbital period
92.34 mins
BSTAR
0.00056381
Loading maneuver chart data...
Computing Atmospheric mass density...
Loading historical data...
Loading historical data...
Loading historical data...
Loading historical data...
Loading historical data...
Loading historical data...
Loading historical data...

Documentation

Showing up to 5 results
|